Weather History for KPRO - November, 2012

Change the Weather History Date:

Wednesday, November 7, 2012

  Actual Average Record
Temperature  
Mean Temperature 41 °F -  
Max Temperature 49 °F 49 °F 75 °F (1954)
Min Temperature 32 °F 28 °F -13 °F (1991)
Degree Days  
Heating Degree Days 24    
Moisture  
Dew Point 34 °F    
Average Humidity 71    
Maximum Humidity 91    
Minimum Humidity 52    
Precipitation  
Precipitation 0.00 in - - ()
Sea Level Pressure  
Sea Level Pressure 30.09 in    
Wind  
Wind Speed 10 mph (North)    
Max Wind Speed 17 mph    
Max Gust Speed 24 mph    
Visibility 10 miles    
Events      
Averages and records for this station are not official NWS values.
T = Trace of Precipitation, MM = Missing Value Source: NWS Daily Summary

Daily Weather History Graph

Daily Weather History Graph

Search for Another Location

Airport or City:

Trip Planner

Search our weather history database for the weather conditions in past years. The results will help you decide how hot, cold, wet, or windy it might be!

Date:

Astronomy

Nov. 07, 2012 Rise Set
Actual Time 6:56 AM CST 5:03 PM CST
Civil Twilight 6:27 AM CST 5:32 PM CST
Nautical Twilight 5:54 AM CST 6:05 PM CST
Astronomical Twilight 5:21 AM CST 6:38 PM CST
Moon No Moon Rise 1:18 PM CST (11/7)
Length of Visible Light 11h 05m
Length of Day
10h 06m
Last Quarter, 43% of the Moon is Illuminated
Nov 7
Last Quarter
Nov 13
New
Nov 20
First Quarter
Nov 28
Full
Dec 6
Last Quarter

Hourly Weather History & Observations

Time (CST) Temp. Windchill Dew Point Humidity Pressure Visibility Wind Dir Wind Speed Gust Speed Precip Events Conditions
12:15 AM 46.8 °F - 33.8 °F 61% 30.00 in 10.0 mi NNW 17.3 mph - N/A   Overcast
12:35 AM 46.4 °F 40.4 °F 34.3 °F 63% 30.01 in 10.0 mi NW 13.8 mph - N/A   Overcast
12:55 AM 46.4 °F 40.1 °F 33.8 °F 62% 30.02 in 10.0 mi NW 15.0 mph 20.7 mph N/A   Overcast
1:15 AM 45.9 °F 39.1 °F 33.6 °F 62% 30.02 in 10.0 mi NNW 16.1 mph 20.7 mph N/A   Overcast
1:35 AM 45.7 °F 39.1 °F 33.3 °F 62% 30.02 in 10.0 mi NNW 15.0 mph - N/A   Overcast
1:55 AM 45.5 °F 38.3 °F 33.3 °F 62% 30.03 in 10.0 mi NNW 17.3 mph 24.2 mph N/A   Overcast
2:15 AM 45.0 °F 37.6 °F 33.6 °F 64% 30.03 in 10.0 mi NNW 17.3 mph - N/A   Overcast
2:55 AM 44.6 °F 38.1 °F 34.2 °F 67% 30.04 in 10.0 mi NNW 13.8 mph 19.6 mph N/A   Overcast
3:15 AM 44.2 °F 37.6 °F 34.7 °F 69% 30.04 in 10.0 mi NNW 13.8 mph 20.7 mph N/A   Overcast
3:35 AM 44.2 °F 38.0 °F 35.1 °F 70% 30.05 in 10.0 mi NNW 12.7 mph - N/A   Overcast
3:55 AM 44.2 °F 38.0 °F 35.4 °F 71% 30.05 in 10.0 mi North 12.7 mph 19.6 mph N/A   Overcast
4:35 AM 42.8 °F 36.2 °F 36.1 °F 77% 30.06 in 10.0 mi North 12.7 mph - N/A   Overcast
4:55 AM 42.8 °F 37.0 °F 35.6 °F 76% 30.07 in 10.0 mi North 10.4 mph 16.1 mph N/A   Overcast
5:15 AM 42.8 °F 36.2 °F 35.4 °F 75% 30.08 in 10.0 mi North 12.7 mph - N/A   Overcast
5:35 AM 42.8 °F 37.0 °F 35.6 °F 76% 30.08 in 10.0 mi North 10.4 mph - N/A   Overcast
5:55 AM 42.8 °F 36.6 °F 35.8 °F 76% 30.08 in 10.0 mi NNW 11.5 mph - N/A   Overcast
6:15 AM 42.4 °F 36.5 °F 35.6 °F 77% 30.09 in 10.0 mi North 10.4 mph - N/A   Overcast
6:35 AM 42.4 °F 37.5 °F 36.0 °F 78% 30.09 in 10.0 mi North 8.1 mph - N/A   Overcast
6:55 AM 42.4 °F 37.5 °F 36.1 °F 78% 30.10 in 10.0 mi North 8.1 mph - N/A   Overcast
7:15 AM 42.8 °F 38.0 °F 36.7 °F 79% 30.11 in 10.0 mi NNW 8.1 mph - N/A   Overcast
7:35 AM 42.8 °F 38.6 °F 36.9 °F 80% 30.12 in 10.0 mi NNW 6.9 mph - N/A   Overcast
7:55 AM 43.0 °F 38.8 °F 37.2 °F 80% 30.13 in 10.0 mi NNW 6.9 mph - N/A   Overcast
8:15 AM 43.3 °F 39.2 °F 37.2 °F 79% 30.13 in 10.0 mi NW 6.9 mph - N/A   Overcast
8:35 AM 43.7 °F 39.1 °F 37.2 °F 78% 30.14 in 10.0 mi NW 8.1 mph - N/A   Overcast
8:55 AM 44.1 °F 41.5 °F 37.2 °F 77% 30.14 in 10.0 mi WNW 4.6 mph - N/A   Overcast
9:15 AM 44.2 °F 40.3 °F 36.9 °F 75% 30.14 in 10.0 mi NNW 6.9 mph - N/A   Overcast
9:35 AM 44.8 °F 41.0 °F 36.9 °F 74% 30.14 in 10.0 mi NNW 6.9 mph - N/A   Overcast
9:55 AM 45.3 °F 41.6 °F 36.3 °F 71% 30.15 in 10.0 mi NW 6.9 mph - N/A   Overcast
10:15 AM 45.5 °F 43.2 °F 35.4 °F 68% 30.15 in 10.0 mi NW 4.6 mph - N/A   Overcast
10:35 AM 45.5 °F 42.5 °F 34.2 °F 65% 30.15 in 10.0 mi NW 5.8 mph - N/A   Overcast
10:55 AM 45.9 °F 42.9 °F 33.6 °F 62% 30.15 in 10.0 mi NW 5.8 mph - N/A   Overcast
11:15 AM 46.0 °F 42.5 °F 33.8 °F 62% 30.15 in 10.0 mi North 6.9 mph - N/A   Overcast
11:35 AM 46.2 °F 44.1 °F 33.4 °F 61% 30.15 in 10.0 mi North 4.6 mph - N/A   Overcast
11:55 AM 46.4 °F 42.9 °F 34.0 °F 62% 30.14 in 10.0 mi NNW 6.9 mph - N/A   Overcast
12:15 PM 46.4 °F - 33.8 °F 62% 30.14 in 10.0 mi Calm Calm - N/A   Overcast
12:35 PM 46.6 °F - 34.2 °F 62% 30.13 in 10.0 mi NW 3.5 mph - N/A   Overcast
12:55 PM 46.6 °F - 33.8 °F 61% 30.12 in 10.0 mi North 6.9 mph - N/A   Overcast
1:15 PM 47.7 °F - 33.1 °F 57% 30.11 in 10.0 mi North 4.6 mph - N/A   Overcast
1:35 PM 48.6 °F - 32.9 °F 55% 30.11 in 10.0 mi North 3.5 mph - N/A   Mostly Cloudy
1:55 PM 48.4 °F - 32.9 °F 55% 30.10 in 10.0 mi Calm Calm - N/A   Scattered Clouds
2:15 PM 49.6 °F - 32.9 °F 53% 30.09 in 10.0 mi ENE 3.5 mph - N/A   Scattered Clouds
2:35 PM 48.0 °F - 32.9 °F 56% 30.09 in 10.0 mi ENE 3.5 mph - N/A   Mostly Cloudy
2:55 PM 48.2 °F - 33.6 °F 57% 30.09 in 10.0 mi NNE 6.9 mph - N/A   Scattered Clouds
3:15 PM 49.1 °F - 33.6 °F 55% 30.09 in 10.0 mi NE 4.6 mph - N/A   Clear
3:35 PM 48.6 °F - 32.9 °F 55% 30.10 in 10.0 mi Calm Calm - N/A   Clear
3:55 PM 49.5 °F - 32.4 °F 52% 30.10 in 10.0 mi Calm Calm - N/A   Clear
4:15 PM 48.2 °F - 32.9 °F 55% 30.10 in 10.0 mi Calm Calm - N/A   Clear
4:35 PM 47.5 °F - 34.7 °F 61% 30.10 in 10.0 mi East 6.9 mph - N/A   Clear
4:55 PM 45.3 °F 41.6 °F 34.7 °F 66% 30.10 in 10.0 mi ESE 6.9 mph - N/A   Clear
5:15 PM 43.3 °F 39.2 °F 34.3 °F 71% 30.09 in 10.0 mi ESE 6.9 mph - N/A   Clear
5:35 PM 41.9 °F 38.2 °F 34.2 °F 74% 30.09 in 10.0 mi ESE 5.8 mph - N/A   Clear
5:55 PM 40.3 °F 36.3 °F 33.1 °F 75% 30.09 in 10.0 mi SE 5.8 mph - N/A   Clear
6:15 PM 40.3 °F 37.1 °F 33.4 °F 77% 30.09 in 10.0 mi ESE 4.6 mph - N/A   Clear
6:35 PM 42.4 °F 38.1 °F 33.6 °F 71% 30.09 in 10.0 mi SE 6.9 mph - N/A   Clear
6:55 PM 39.0 °F 34.8 °F 32.9 °F 79% 30.09 in 10.0 mi SE 5.8 mph - N/A   Clear
7:15 PM 37.9 °F 32.7 °F 32.5 °F 81% 30.09 in 10.0 mi SE 6.9 mph - N/A   Clear
7:35 PM 37.8 °F 32.5 °F 32.2 °F 80% 30.09 in 10.0 mi SE 6.9 mph - N/A   Clear
8:15 PM 36.1 °F 30.6 °F 31.8 °F 84% 30.09 in 10.0 mi SE 6.9 mph - N/A   Clear
8:35 PM 36.5 °F 30.3 °F 32.0 °F 84% 30.08 in 10.0 mi SE 8.1 mph - N/A   Clear
8:55 PM 35.6 °F 29.9 °F 31.8 °F 86% 30.09 in 10.0 mi SE 6.9 mph - N/A   Clear
9:15 PM 35.6 °F 29.2 °F 31.5 °F 85% 30.09 in 10.0 mi SE 8.1 mph - N/A   Clear
9:35 PM 35.8 °F 30.1 °F 32.0 °F 86% 30.10 in 10.0 mi SSE 6.9 mph - N/A   Clear
9:55 PM 35.1 °F 28.6 °F 31.5 °F 87% 30.10 in 10.0 mi SSE 8.1 mph - N/A   Clear
10:15 PM 34.7 °F 28.8 °F 31.6 °F 89% 30.10 in 10.0 mi SSE 6.9 mph - N/A   Clear
10:35 PM 35.4 °F 29.7 °F 32.0 °F 87% 30.10 in 10.0 mi SSE 6.9 mph - N/A   Clear
10:55 PM 35.1 °F 29.3 °F 31.5 °F 87% 30.10 in 10.0 mi SSE 6.9 mph - N/A   Clear
11:15 PM 33.1 °F 26.9 °F 30.4 °F 90% 30.10 in 10.0 mi SSE 6.9 mph - N/A   Clear
11:35 PM 34.0 °F 28.0 °F 31.6 °F 91% 30.09 in 10.0 mi SSE 6.9 mph - N/A   Clear
11:55 PM 32.9 °F 26.7 °F 30.4 °F 90% 30.09 in 10.0 mi SSE 6.9 mph - N/A   Clear